Regional Weather Roundup
Issued by NWS

Home | Current Version | Previous Version | Graphics & Text | Print | Product List | Glossary On
Versions: 1 2 3 4 5 6 7 8 9 10 11 12 13 14 15 16 17 18 19 20 21 22 23 24 25 26 27
000
ASUS45 KSLC 231910
RWRUT

UTAH REGIONAL WEATHER ROUNDUP
NATIONAL WEATHER SERVICE SALT LAKE CITY UT
100 PM MDT SAT SEP 23 2017

UTZ001>011-023>025-232000-

NORTHERN UTAH

CITY           SKY/WX    TMP DP  RH WIND       PRES   REMARKS
BRIGHAM CITY   CLOUDY    52  34  49 CALM      29.96S
HILL AFB       PTSUNNY   49  33  54 CALM      29.94F
LOGAN          CLOUDY    48  35  60 CALM      29.98F
OGDEN          CLOUDY    52  38  58 N9        29.94F
SALT LAKE CITY CLOUDY    54  37  52 NW12      29.94F
TOOELE VALLEY  CLOUDY    50  36  57 N9        29.97S
WENDOVER       MOSUNNY   53  33  46 NE12      29.98F
HEBER CITY     CLOUDY    45  32  61 N6        29.92F
WEST JORDAN    PTSUNNY   50  43  76 N12G18    29.95F

$$

UTZ011>015-024>027-232000-

CENTRAL/NORTHEAST UTAH

CITY           SKY/WX    TMP DP  RH WIND       PRES   REMARKS
PROVO AIRPORT  PTSUNNY   51  37  58 VRB3      29.93F
MOAB/CANYONLAN MOSUNNY   65  42  43 NE8       29.77F
DELTA          CLOUDY    48  34  57 N3        29.94S
PRICE          MOSUNNY   59  28  30 S10G16    29.84S
RICHFIELD      PTSUNNY   46  36  66 N5        29.96S
ROOSEVELT      CLOUDY    55  34  44 CALM      29.90F
VERNAL         CLOUDY    55  37  50 CALM      29.88F

$$

UTZ013>016-019>022-027-232000-

SOUTHERN UTAH

CITY           SKY/WX    TMP DP  RH WIND       PRES   REMARKS
BRYCE CANYON   PTSUNNY   47  27  45 W14       29.89F
CEDAR CITY     CLOUDY    45  35  68 N8        29.94S
MILFORD        CLOUDY    46  37  71 N10       29.95S
ST GEORGE      PTCLDY    62  34  35 NW8       29.85F
HANKSVILLE     SUNNY     66  27  22 SW6       29.80F
KANAB          SUNNY     64  21  19 S10G18    29.87F
BLANDING         N/A     56  46  69 E15G21    29.93F

$$

REGIONAL REPORTS     COLORADO/ARIZONA

CITY           SKY/WX    TMP DP  RH WIND       PRES   REMARKS
CRAIG, CO      CLOUDY    52  39  61 SE22G29   29.91F
GRAND JUNCTION CLOUDY    57  46  66 SE16      29.86F
RIFLE, CO      LGT RAIN  51  48  89 NE7       29.93F
MONTROSE, CO   LGT RAIN  52  46  80 SE13G21   29.95F
CORTEZ, CO     CLOUDY    53  45  74 SE14      29.89F
PAGE, AZ       SUNNY     67  22  18 NE5       29.77F
GRAND CANYON   SUNNY     57  15  19 W10G23    29.90F
KINGMAN, AZ    SUNNY     69  30  23 NW9G16    29.86S
FLAGSTAFF, AZ  SUNNY     57  12  17 SW20G30   29.92S

$$

REGIONAL REPORTS    NEVADA/IDAHO/WYOMING

CITY           SKY/WX    TMP DP  RH WIND       PRES   REMARKS
LAS VEGAS, NV  MOSUNNY   72  28  19 N16       29.83F
ELY, NY        CLOUDY    42  32  67 N10       29.98F
ELKO, NV       MOSUNNY   44  35  70 CALM      30.03F
POCATELLO, ID  CLOUDY    45  35  68 N3        30.05S
BURLEY, ID     PTSUNNY   47  36  65 W6        30.02F
FORT BRIDGER,  CLOUDY    42  39  91 NE9       29.98F
EVANSTON, WY   CLOUDY    41  34  76 N10       29.96S
ROCK SPRINGS,  CLOUDY    43  40  89 NE10      29.95F
KEMMERER, WY     N/A     43  32  65 NE5       29.97S

$$




USA.gov is the U.S. government's official web portal to all federal, state and local government web resources and services.